Home > Weather > Zagreb > Past weeks

Flag for Croatia Weather for the Past 2 Weeks in Zagreb, Croatia

Now
72 °F

Passing clouds.


Feels Like: 77 °F
Forecast: 43 / 69 °F
Wind: 2 mph from North

Location: Zagreb / Pleso

Current Time: May 6, 2016 at 2:08:11 PM

Latest Report: May 6, 2016 at 1:30 PM


Visibility: N/A

Pressure: 30.07 "Hg

Humidity: 44%

Dew Point: 48 °F

Location of ZagrebLocation

Historic Weather in Zagreb — Graph

°F

Zagreb Temperature Yesterday

Maximum temperature yesterday: 68 °F (at 5:00 PM)
Minimum temperature yesterday: 48 °F (at 6:00 AM)
Average temperature yesterday: 58 °F

High & Low Weather Summary for the Past Weeks

 TemperatureHumidityPressure
High73 °F (Apr 22, 4:30 PM)100% (Apr 30, 6:30 AM)30.30 "Hg (Apr 30, 6:30 AM)
Low28 °F (Apr 26, 5:00 AM)29% (Apr 26, 1:00 PM)29.53 "Hg (Apr 24, 2:00 AM)
Average51 °F73%29.94 "Hg
* Reported Apr 21 1:00 PM — May 6 1:00 PM, Zagreb, Weather by CustomWeather, © 2016

Note: Actual official high and low records may vary slightly from our data, if they occured in-between our weather recording intervals... More about our weather records

Advertising

Zagreb Weather History for the Previous 24 Hours

Scroll right to see more
 ConditionsComfort  
Time TempWeatherWind HumidityBarometerVisibility
1:00 PM
Fri, May 6
70 °FPassing clouds.2 mph50%30.09 "HgN/A
12:30 PM68 °FSunny.2 mph53%30.09 "Hg10 mi
12:00 PM66 °FSunny.3 mph56%30.09 "Hg10 mi
11:30 AM66 °FPassing clouds.5 mph56%30.09 "HgN/A
11:00 AM64 °FSunny.2 mph64%30.12 "Hg10 mi
10:30 AM63 °FSunny.2 mph68%30.12 "Hg10 mi
10:00 AM63 °FSunny.2 mph64%30.12 "Hg10 mi
9:30 AM61 °FSunny.3 mph72%30.12 "Hg10 mi
9:00 AM59 °FPassing clouds.3 mph77%30.12 "HgN/A
8:30 AM55 °FPassing clouds.3 mph88%30.12 "HgN/A
8:00 AM54 °FSunny.1 mph88%30.12 "Hg10 mi
7:30 AM52 °FSunny.1 mph94%30.12 "Hg10 mi
7:00 AM50 °FSunny.1 mph88%30.12 "Hg10 mi
6:30 AM48 °FClear.2 mph94%30.12 "Hg10 mi
6:00 AM46 °FClear.2 mph93%30.12 "Hg10 mi
5:30 AM48 °FClear.2 mph94%30.12 "Hg10 mi
5:00 AM48 °FPassing clouds.6 mph94%30.12 "HgN/A
4:30 AM48 °FPassing clouds.3 mph94%30.12 "HgN/A
4:00 AM48 °FPassing clouds.6 mph87%30.12 "HgN/A
3:30 AM48 °FClear.5 mph94%30.12 "Hg10 mi
3:00 AM48 °FClear.2 mph94%30.12 "Hg10 mi
2:30 AM48 °FClear.2 mph94%30.12 "Hg10 mi
2:00 AM48 °FClear.5 mph94%30.15 "Hg10 mi
1:30 AM50 °FClear.No wind94%30.15 "Hg10 mi
1:00 AM52 °FClear.No wind88%30.15 "Hg10 mi
12:30 AM52 °FClear.2 mph88%30.15 "Hg10 mi
12:00 AM54 °FClear.2 mph82%30.18 "Hg10 mi
11:30 PM
Thu, May 5
54 °FClear.2 mph82%30.15 "Hg10 mi
11:00 PM55 °FClear.3 mph77%30.15 "Hg10 mi
10:30 PM59 °FPassing clouds.3 mph68%30.15 "HgN/A
10:00 PM59 °FPassing clouds.6 mph72%30.18 "HgN/A
9:30 PM61 °FPassing clouds.6 mph68%30.15 "HgN/A
9:00 PM61 °FPassing clouds.1 mph68%30.15 "HgN/A
8:30 PM63 °FPassing clouds.3 mph59%30.15 "HgN/A
8:00 PM64 °FPassing clouds.7 mph60%30.12 "HgN/A
7:30 PM64 °FPassing clouds.7 mph60%30.12 "HgN/A
7:00 PM64 °FPassing clouds.8 mph56%30.12 "HgN/A
6:30 PM66 °FPassing clouds.10 mph49%30.12 "HgN/A
6:00 PM68 °FPassing clouds.6 mph49%30.12 "HgN/A
5:30 PM66 °FPassing clouds.7 mph49%30.12 "HgN/A
5:00 PM68 °FPassing clouds.8 mph46%30.12 "HgN/A
4:30 PM66 °FPassing clouds.8 mph52%30.12 "HgN/A
4:00 PM66 °FPassing clouds.7 mph52%30.15 "HgN/A
3:30 PM66 °FPartly sunny.7 mph52%30.15 "HgN/A
3:00 PM64 °FPartly sunny.8 mph56%30.15 "HgN/A
2:30 PM64 °FPartly sunny.8 mph56%30.15 "HgN/A
2:00 PM64 °FPartly sunny.10 mph56%30.15 "HgN/A
Weather by CustomWeather, © 2016

See weather overviewHow to use our weather pages